Weather History for Courtland, AL

Change the Weather History Date:

Wednesday, July 3, 2013

  Actual Average (KMSL) Record (KMSL)
Temperature  
Mean Temperature 72 °F 80 °F  
Max Temperature 82 °F 90 °F 104 °F (1925)
Min Temperature 62 °F 69 °F 52 °F (1924)
Degree Days  
Heating Degree Days 0 0  
Month to date heating degree days 0  
Since 1 June heating degree days 1  
Since 1 July heating degree days 0  
Cooling Degree Days 7 15  
Month to date cooling degree days 45  
Year to date cooling degree days 651  
Since 1 June cooling degree days 407  
Growing Degree Days 22 (Base 50)    
Moisture  
Dew Point 65 °F    
Average Humidity 78    
Maximum Humidity 100    
Minimum Humidity 45    
Precipitation  
Precipitation 0.00 in 0.16 in 2.00 in (1936)
Month to date precipitation 0.47  
Year to date precipitation 28.73  
Snow  
Snow 0.00 in - - ()
Month to date snowfall  
Since 1 June snowfall  
Since 1 July snowfall  
Snow Depth -    
Sea Level Pressure  
Sea Level Pressure 30.08 in    
Wind  
Wind Speed 2 mph (SE)    
Max Wind Speed 10 mph    
Max Gust Speed -    
Visibility 10 miles    
Events Rain    
T = Trace of Precipitation, MM = Missing Value Source: NWS Daily Summary

Daily Weather History Graph

Daily Weather History Graph

Search for Another Location

Airport:

Trip Planner

Search our weather history database for the weather conditions in past years. The results will help you decide how hot, cold, wet, or windy it might be!

Date:

Astronomy

Jul. 03, 2013 Rise Set
Actual Time 5:41 AM CDT 8:06 PM CDT
Civil Twilight 5:11 AM CDT 8:35 PM CDT
Nautical Twilight 4:35 AM CDT 9:11 PM CDT
Astronomical Twilight 3:55 AM CDT 9:51 PM CDT
Moon 2:13 AM CDT (7/3) 4:20 PM CDT (7/3)
Length of Visible Light 15h 23m
Length of Day
14h 25m
Waning Crescent, 18% of the Moon is Illuminated
Jul 3
Waning Crescent
Jul 8
New
Jul 15
First Quarter
Jul 22
Full
Jul 29
Last Quarter

Hourly Weather History & Observations

Time (CDT) Temp. Heat Index Dew Point Humidity Pressure Visibility Wind Dir Wind Speed Gust Speed Precip Events Conditions
12:15 AM 68.0 °F - 66.2 °F 94% 30.05 in 10.0 mi Calm Calm - N/A   Clear
12:35 AM 68.0 °F - 64.4 °F 88% 30.06 in 10.0 mi Calm Calm - N/A   Clear
12:55 AM 66.2 °F - 64.4 °F 94% 30.06 in 10.0 mi Calm Calm - N/A   Clear
1:15 AM 66.2 °F - 64.4 °F 94% 30.06 in 10.0 mi Calm Calm - N/A   Clear
1:55 AM 64.4 °F - 64.4 °F 100% 30.05 in 10.0 mi Calm Calm - N/A   Clear
2:15 AM 64.4 °F - 64.4 °F 100% 30.05 in 10.0 mi Calm Calm - N/A   Clear
2:35 AM 64.4 °F - 64.4 °F 100% 30.05 in 10.0 mi Calm Calm - N/A   Clear
2:55 AM 64.4 °F - 62.6 °F 94% 30.05 in 10.0 mi Calm Calm - N/A   Clear
3:15 AM 64.4 °F - 64.4 °F 100% 30.06 in 10.0 mi Calm Calm - N/A   Clear
3:35 AM 64.4 °F - 62.6 °F 94% 30.06 in 10.0 mi Calm Calm - N/A   Scattered Clouds
3:55 AM 64.4 °F - 62.6 °F 94% 30.07 in 10.0 mi Calm Calm - N/A   Scattered Clouds
4:15 AM 62.6 °F - 62.6 °F 100% 30.07 in 10.0 mi Calm Calm - N/A   Clear
4:35 AM 64.4 °F - 62.6 °F 94% 30.06 in 10.0 mi Calm Calm - N/A   Clear
4:55 AM 64.4 °F - 62.6 °F 94% 30.06 in 10.0 mi Calm Calm - N/A   Clear
5:15 AM 64.4 °F - 64.4 °F 100% 30.08 in 10.0 mi SE 3.5 mph - N/A   Scattered Clouds
5:35 AM 64.4 °F - 64.4 °F 100% 30.09 in 10.0 mi East 6.9 mph - N/A   Mostly Cloudy
5:55 AM 66.2 °F - 64.4 °F 94% 30.09 in 10.0 mi Calm Calm - N/A   Overcast
6:15 AM 64.4 °F - 64.4 °F 100% 30.09 in 10.0 mi West 4.6 mph - N/A   Overcast
6:35 AM 66.2 °F - 64.4 °F 94% 30.09 in 10.0 mi Calm Calm - N/A   Overcast
6:55 AM 66.2 °F - 64.4 °F 94% 30.10 in 10.0 mi Calm Calm - N/A   Overcast
7:15 AM 68.0 °F - 64.4 °F 88% 30.09 in 10.0 mi Calm Calm - N/A   Mostly Cloudy
7:35 AM 68.0 °F - 64.4 °F 88% 30.10 in 10.0 mi Calm Calm - N/A   Scattered Clouds
7:55 AM 69.8 °F - 64.4 °F 83% 30.11 in 10.0 mi Calm Calm - N/A   Mostly Cloudy
8:15 AM 69.8 °F - 64.4 °F 83% 30.11 in 10.0 mi Calm Calm - N/A   Mostly Cloudy
8:35 AM 71.6 °F - 64.4 °F 78% 30.11 in 10.0 mi Calm Calm - N/A   Scattered Clouds
8:55 AM 71.6 °F - 64.4 °F 78% 30.11 in 10.0 mi Calm Calm - N/A   Scattered Clouds
9:15 AM 73.4 °F - 64.4 °F 73% 30.11 in 10.0 mi NNW 4.6 mph - N/A   Scattered Clouds
9:35 AM 73.4 °F - 64.4 °F 73% 30.12 in 10.0 mi Calm Calm - N/A   Scattered Clouds
9:55 AM 77.0 °F - 64.4 °F 65% 30.12 in 10.0 mi Calm Calm - N/A   Scattered Clouds
10:15 AM 77.0 °F - 64.4 °F 65% 30.12 in 10.0 mi East 3.5 mph - N/A   Scattered Clouds
10:35 AM 77.0 °F - 64.4 °F 65% 30.12 in 10.0 mi ENE 4.6 mph - N/A   Clear
10:55 AM 78.8 °F - 64.4 °F 61% 30.12 in 10.0 mi ESE 4.6 mph - N/A   Clear
11:15 AM 78.8 °F - 64.4 °F 61% 30.12 in 10.0 mi Calm Calm - N/A   Clear
11:35 AM 80.6 °F 81.8 °F 62.6 °F 54% 30.11 in 10.0 mi East 6.9 mph - N/A   Clear
11:55 AM 80.6 °F 81.8 °F 62.6 °F 54% 30.11 in 10.0 mi East 4.6 mph - N/A   Clear
12:15 PM 80.6 °F 81.8 °F 62.6 °F 54% 30.11 in 10.0 mi Calm Calm - N/A   Clear
12:35 PM 82.4 °F 82.9 °F 60.8 °F 48% 30.11 in 10.0 mi ESE 5.8 mph - N/A   Scattered Clouds
12:55 PM 82.4 °F 82.9 °F 60.8 °F 48% 30.10 in 10.0 mi Calm Calm - N/A   Scattered Clouds
1:15 PM 82.4 °F 82.5 °F 59.0 °F 45% 30.10 in 10.0 mi NE 3.5 mph - N/A   Clear
1:35 PM 82.4 °F 82.9 °F 60.8 °F 48% 30.09 in 10.0 mi East 4.6 mph - N/A   Scattered Clouds
1:55 PM 82.4 °F 82.5 °F 59.0 °F 45% 30.09 in 10.0 mi SSE 3.5 mph - N/A   Scattered Clouds
2:15 PM 82.4 °F 82.5 °F 59.0 °F 45% 30.09 in 10.0 mi ESE 4.6 mph - N/A   Scattered Clouds
2:35 PM 82.4 °F 82.9 °F 60.8 °F 48% 30.08 in 10.0 mi Calm Calm - N/A   Clear
2:55 PM 82.4 °F 82.5 °F 59.0 °F 45% 30.08 in 10.0 mi Calm Calm - N/A   Scattered Clouds
3:15 PM 82.4 °F 83.4 °F 62.6 °F 51% 30.07 in 10.0 mi ESE 4.6 mph - N/A   Scattered Clouds
3:35 PM 82.4 °F 82.9 °F 60.8 °F 48% 30.06 in 10.0 mi SE 5.8 mph - N/A   Scattered Clouds
3:55 PM 82.4 °F 83.4 °F 62.6 °F 51% 30.07 in 10.0 mi SE 3.5 mph - N/A   Scattered Clouds
4:15 PM 82.4 °F 82.9 °F 60.8 °F 48% 30.06 in 10.0 mi SSW 5.8 mph - N/A   Clear
4:35 PM 82.4 °F 83.4 °F 62.6 °F 51% 30.06 in 10.0 mi SSE 4.6 mph - N/A   Clear
4:55 PM 80.6 °F 82.3 °F 64.4 °F 58% 30.06 in 10.0 mi South 10.4 mph - N/A   Clear
5:15 PM 80.6 °F 82.3 °F 64.4 °F 58% 30.06 in 10.0 mi SE 9.2 mph - N/A   Scattered Clouds
5:35 PM 82.4 °F 83.4 °F 62.6 °F 51% 30.05 in 10.0 mi ESE 5.8 mph - N/A   Scattered Clouds
5:55 PM 82.4 °F 82.9 °F 60.8 °F 48% 30.05 in 10.0 mi ESE 5.8 mph - N/A   Clear
6:15 PM 82.4 °F 82.5 °F 59.0 °F 45% 30.05 in 10.0 mi ESE 6.9 mph - N/A   Clear
6:35 PM 78.8 °F - 64.4 °F 61% 30.06 in 10.0 mi SE 10.4 mph - N/A Rain Rain
6:55 PM 71.6 °F - 69.8 °F 94% 30.07 in 10.0 mi SSE 8.1 mph - N/A   Mostly Cloudy
7:15 PM 71.6 °F - 68.0 °F 88% 30.08 in 10.0 mi SSE 6.9 mph - N/A   Mostly Cloudy
7:35 PM 71.6 °F - 68.0 °F 88% 30.09 in 10.0 mi South 4.6 mph - N/A Rain Light Rain
7:55 PM 71.6 °F - 69.8 °F 94% 30.09 in 10.0 mi Calm Calm - N/A Rain Light Rain
8:15 PM 71.6 °F - 69.8 °F 94% 30.09 in 10.0 mi SSE 3.5 mph - N/A   Scattered Clouds
8:35 PM 69.8 °F - 69.8 °F 100% 30.08 in 10.0 mi SSE 3.5 mph - N/A   Scattered Clouds
8:55 PM 69.8 °F - 69.8 °F 100% 30.08 in 10.0 mi SE 5.8 mph - N/A   Scattered Clouds
9:15 PM 69.8 °F - 69.8 °F 100% 30.09 in 10.0 mi SE 3.5 mph - N/A   Clear
9:35 PM 71.6 °F - 69.8 °F 94% 30.10 in 10.0 mi ESE 3.5 mph - N/A   Scattered Clouds
9:55 PM 71.6 °F - 71.6 °F 100% 30.10 in 10.0 mi SE 3.5 mph - N/A   Overcast
10:15 PM 71.6 °F - 69.8 °F 94% 30.11 in 10.0 mi SE 5.8 mph - N/A   Overcast
10:35 PM 71.6 °F - 69.8 °F 94% 30.11 in 10.0 mi SE 4.6 mph - N/A   Overcast
10:55 PM 71.6 °F - 69.8 °F 94% 30.11 in 10.0 mi ESE 5.8 mph - N/A   Overcast
11:15 PM 71.6 °F - 69.8 °F 94% 30.10 in 10.0 mi ESE 5.8 mph - N/A   Overcast
11:35 PM 71.6 °F - 69.8 °F 94% 30.10 in 10.0 mi ESE 5.8 mph - N/A   Mostly Cloudy
11:55 PM 71.6 °F - 69.8 °F 94% 30.10 in 10.0 mi ESE 3.5 mph - N/A   Scattered Clouds